Location: Caltech
(34.1382°N, 118.1253°W)
Time: 18:13:58
(UTC-08:00)

Cosmos 44 Rocket - Visible Passes

Search period start: 24 February 2017 00:00
Search period end: 06 March 2017 00:00
Orbit: 652 x 739 km, 65.1° (Epoch: 24 February)

Date Brightness Start Highest point End Pass type
(mag) Time Alt. Az. Time Alt. Az. Time Alt. Az.
24 Feb 5.0 18:11:51 10° NW 18:16:09 36° WSW 18:20:22 10° S visible
28 Feb 7.0 05:36:40 10° ESE 05:37:54 11° ESE 05:39:07 10° E visible
02 Mar 6.4 05:17:08 10° SE 05:20:01 15° ESE 05:22:52 10° ENE visible
04 Mar 6.0 04:58:26 10° SSE 05:02:09 21° ESE 05:05:50 10° ENE visible
05 Mar 3.6 05:38:39 10° SSW 05:43:44 76° ESE 05:48:44 10° NNE visible
